Weather History for Joplin, MO

Change the Weather History Date:

Saturday, March 23, 2013

  Actual Average Record
Temperature  
Mean Temperature 38 °F 51 °F  
Max Temperature 40 °F 62 °F 80 °F (1994)
Min Temperature 36 °F 40 °F 17 °F (1974)
Degree Days  
Heating Degree Days 27 14  
Month to date heating degree days 508 403  
Since 1 July heating degree days 3624 3657  
Cooling Degree Days 0 0  
Month to date cooling degree days 0 0  
Year to date cooling degree days 1 1  
Moisture  
Dew Point 36 °F    
Average Humidity 93    
Maximum Humidity 100    
Minimum Humidity 85    
Precipitation  
Precipitation 0.06 in 0.11 in 1.74 in (1969)
Month to date precipitation 1.39 2.45  
Year to date precipitation 6.54 6.80  
Sea Level Pressure  
Sea Level Pressure 29.85 in    
Wind  
Wind Speed 7 mph (NE)    
Max Wind Speed 14 mph    
Max Gust Speed 20 mph    
Visibility 3 miles    
Events Rain    
T = Trace of Precipitation, MM = Missing Value Source: NWS Daily Summary

Daily Weather History Graph

Daily Weather History Graph

Search for Another Location

Airport:

Trip Planner

Search our weather history database for the weather conditions in past years. The results will help you decide how hot, cold, wet, or windy it might be!

Date:

Astronomy

Mar. 23, 2013 Rise Set
Actual Time 7:16 AM CDT 7:32 PM CDT
Civil Twilight 6:50 AM CDT 7:58 PM CDT
Nautical Twilight 6:20 AM CDT 8:29 PM CDT
Astronomical Twilight 5:49 AM CDT 9:00 PM CDT
Moon 4:04 PM CDT (3/23) 4:48 AM CDT (3/23)
Length of Visible Light 13h 08m
Length of Day
12h 16m
Waxing Gibbous, 85% of the Moon is Illuminated
Mar 23
Waxing Gibbous
Mar 27
Full
Apr 2
Last Quarter
Apr 10
New
Apr 18
First Quarter

Hourly Weather History & Observations

Time (CDT) Temp. Windchill Dew Point Humidity Pressure Visibility Wind Dir Wind Speed Gust Speed Precip Events Conditions
12:53 AM 37.0 °F 34.5 °F 34.0 °F 89% 29.97 in 7.0 mi ENE 3.5 mph - N/A   Overcast
1:51 AM 37.4 °F 32.8 °F 33.8 °F 87% 29.94 in 7.0 mi NE 5.8 mph - N/A   Overcast
1:53 AM 37.0 °F 31.6 °F 34.0 °F 89% 29.95 in 7.0 mi NE 6.9 mph - N/A   Overcast
2:53 AM 37.0 °F 31.6 °F 34.0 °F 89% 29.94 in 6.0 mi NE 6.9 mph - N/A   Overcast
3:53 AM 37.0 °F 31.0 °F 34.0 °F 89% 29.91 in 5.0 mi ENE 8.1 mph - N/A   Overcast
4:19 AM 35.6 °F 29.2 °F 35.6 °F 100% 29.90 in 3.0 mi NE 8.1 mph - N/A   Overcast
4:26 AM 35.6 °F 28.0 °F 35.6 °F 100% 29.89 in 2.5 mi NE 10.4 mph - N/A   Overcast
4:53 AM 36.0 °F 29.6 °F 35.1 °F 97% 29.91 in 2.5 mi NE 8.1 mph - N/A   Overcast
5:24 AM 35.6 °F 31.7 °F 35.6 °F 100% 29.91 in 3.0 mi ENE 4.6 mph - N/A   Overcast
5:53 AM 36.0 °F 30.3 °F 35.1 °F 97% 29.92 in 3.0 mi East 6.9 mph - N/A   Overcast
6:53 AM 36.0 °F 29.0 °F 34.0 °F 93% 29.92 in 4.0 mi ENE 9.2 mph - N/A   Overcast
7:53 AM 36.0 °F 32.1 °F 35.1 °F 97% 29.95 in 3.0 mi Variable 4.6 mph - N/A   Overcast
8:53 AM 36.0 °F 32.1 °F 35.1 °F 97% 29.94 in 2.0 mi Variable 4.6 mph - N/A   Overcast
9:53 AM 37.0 °F 31.0 °F 35.1 °F 93% 29.94 in 2.0 mi East 8.1 mph - N/A   Overcast
10:53 AM 37.9 °F 32.7 °F 36.0 °F 93% 29.94 in 2.0 mi ENE 6.9 mph - N/A   Overcast
11:50 AM 39.2 °F 35.9 °F 37.4 °F 93% 29.91 in 1.5 mi Variable 4.6 mph - 0.00 in Rain Light Rain
11:53 AM 39.0 °F 35.7 °F 37.0 °F 93% 29.92 in 1.0 mi Variable 4.6 mph - 0.00 in Rain Light Rain
12:53 PM 39.0 °F 33.4 °F 37.9 °F 96% 29.90 in 1.2 mi East 8.1 mph - 0.00 in   Overcast
1:51 PM 39.2 °F 33.6 °F 37.4 °F 93% 29.87 in 1.0 mi East 8.1 mph - 0.01 in Rain Light Rain
1:53 PM 39.0 °F 34.0 °F 37.9 °F 96% 29.88 in 1.0 mi ENE 6.9 mph - 0.01 in Rain Light Rain
2:53 PM 39.9 °F 33.9 °F 39.0 °F 97% 29.83 in 1.5 mi East 9.2 mph - 0.01 in   Overcast
3:20 PM 39.2 °F 33.0 °F 37.4 °F 93% 29.81 in 2.0 mi East 9.2 mph - N/A   Overcast
3:53 PM 39.0 °F 33.4 °F 37.9 °F 96% 29.83 in 2.0 mi East 8.1 mph - N/A   Overcast
4:08 PM 39.2 °F 33.6 °F 37.4 °F 93% 29.81 in 2.0 mi NE 8.1 mph - N/A   Overcast
4:26 PM 39.2 °F 33.6 °F 37.4 °F 93% 29.81 in 0.8 mi ENE 8.1 mph - 0.00 in Rain Light Rain
4:49 PM 39.2 °F 33.6 °F 37.4 °F 93% 29.80 in 0.8 mi NE 8.1 mph - 0.00 in Rain Light Rain
4:53 PM 39.0 °F 33.4 °F 37.9 °F 96% 29.81 in 0.8 mi NE 8.1 mph - 0.00 in Rain Light Rain
5:40 PM 39.2 °F 32.5 °F 37.4 °F 93% 29.77 in 1.5 mi ENE 10.4 mph - 0.01 in   Overcast
5:53 PM 39.0 °F 32.3 °F 37.9 °F 96% 29.78 in 1.5 mi ENE 10.4 mph 18.4 mph 0.01 in   Overcast
6:27 PM 39.2 °F 33.0 °F 37.4 °F 93% 29.75 in 2.5 mi East 9.2 mph - N/A   Overcast
6:38 PM 39.2 °F 32.5 °F 37.4 °F 93% 29.75 in 4.0 mi ENE 10.4 mph - N/A   Overcast
6:53 PM 39.9 °F 33.9 °F 37.9 °F 93% 29.77 in 4.0 mi ENE 9.2 mph - N/A   Overcast
7:53 PM 39.0 °F 34.0 °F 37.9 °F 96% 29.79 in 2.0 mi NE 6.9 mph - 0.00 in Rain Light Rain
8:19 PM 39.2 °F 32.5 °F 37.4 °F 93% 29.78 in 2.0 mi NNE 10.4 mph - 0.00 in Rain Light Rain
8:33 PM 37.4 °F 30.8 °F 37.4 °F 100% 29.80 in 1.8 mi NNE 9.2 mph - 0.01 in Rain Light Rain
8:48 PM 37.4 °F 31.4 °F 37.4 °F 100% 29.82 in 2.0 mi North 8.1 mph - 0.01 in Rain Light Rain
8:53 PM 37.9 °F 32.1 °F 37.0 °F 97% 29.83 in 2.0 mi North 8.1 mph - 0.01 in Rain Light Rain
9:09 PM 37.4 °F 29.8 °F 37.4 °F 100% 29.79 in 1.8 mi NNE 11.5 mph - 0.01 in Rain Light Rain
9:27 PM 35.6 °F 28.0 °F 35.6 °F 100% 29.80 in 2.0 mi NNE 10.4 mph - 0.01 in Rain Light Rain
9:53 PM 36.0 °F 29.0 °F 35.1 °F 97% 29.85 in 2.5 mi North 9.2 mph - 0.01 in Rain Light Rain
10:53 PM 36.0 °F 28.0 °F 35.1 °F 97% 29.77 in 2.5 mi NNE 11.5 mph - 0.01 in   Overcast
11:13 PM 35.6 °F 28.0 °F 35.6 °F 100% 29.74 in 3.0 mi NNE 10.4 mph - N/A   Overcast
11:53 PM 37.0 °F 29.3 °F 36.0 °F 96% 29.78 in 4.0 mi NNE 11.5 mph 18.4 mph N/A   Overcast